This demonstration page uses our WeatherBlox Daily Observations layout. Learn more.

Left ArrowRight Arrow

39.12711, -84.51439

Hourly Observations for August 25, 2018

Temp ( °F °C ) Dew Point ( °F °C ) Humidity (%) Winds ( mph kmh ) Pressure ( in mb ) Visibility ( mi km ) Precip ( " mm )
12:53 am 00:53 Cloudy 68 20 67 19.4 96 96 N N/A 30.09 1019 10 16 N/A
1:53 am 01:53 Cloudy 70 21.1 66 18.9 87 87 SSW 7 11 30.09 1019 10 16 N/A
2:53 am 02:53 Cloudy 70 21.1 66 18.9 87 87 SSW 6 9 30.09 1019 10 16 N/A
3:53 am 03:53 Cloudy 70 21.1 66 18.9 87 87 SW 5 7 30.10 1019 10 16 N/A
4:53 am 04:53 Cloudy 70 21.1 65 18.3 84 84 SSW 6 9 30.11 1020 10 16 N/A
5:53 am 05:53 Mostly Cloudy 69 20.6 63 17.2 81 81 S 3 6 30.10 1019 10 16 N/A
6:53 am 06:53 Cloudy 70 21.1 64 17.8 82 82 S 8 13 30.10 1019 10 16 N/A
7:53 am 07:53 Mostly Cloudy 70 21.1 64 17.8 82 82 SSW 7 11 30.10 1019 10 16 N/A
8:53 am 08:53 Partly Cloudy 72 22.2 64 17.8 76 76 S 9 15 30.11 1020 10 16 N/A
9:53 am 09:53 Sunny 76 24.4 67 19.4 74 74 SSW 16 26 30.11 1020 10 16 N/A
10:53 am 10:53 Partly Cloudy 76 24.4 67 19.4 74 74 SW 13 20 30.14 1021 9 14 N/A
11:53 am 11:53 Cloudy 76 24.4 68 20 77 77 SSW 12 19 30.14 1021 9 14 N/A
12:53 pm 12:53 Mostly Cloudy 76 24.4 68 20 77 77 SSW 15 24 30.13 1020 8 13 N/A
1:53 pm 13:53 Mostly Cloudy with Light Rain 74 23.3 70 21.1 88 88 S 8 13 30.12 1020 8 13 N/A
2:53 pm 14:53 Mostly Cloudy 76 24.4 72 22.2 88 88 SW 5 7 30.14 1021 8 13 0.03 0.76
3:53 pm 15:53 Mostly Sunny 78 25.6 72 22.2 82 82 S 13 20 30.09 1019 9 14 N/A
4:53 pm 16:53 Mostly Sunny 79 26.1 71 21.7 77 77 SSW 14 22 30.09 1019 9 14 N/A
5:53 pm 17:53 Partly Cloudy 79 26.1 71 21.7 77 77 S 14 22 30.07 1018 10 16 N/A
6:13 pm 18:13 Mostly Cloudy with Haze 78 25.6 71 21.7 79 79 SSW 10 17 30.06 1018 6 10 N/A
6:15 pm 18:15 Hazy 78 25.6 71 21.7 79 79 S 9 15 30.06 1018 6 10 N/A
6:53 pm 18:53 Hazy 77 25 72 22.2 85 85 S 8 13 30.05 1018 6 10 N/A
7:23 pm 19:23 Mostly Cloudy with Thunderstorms 77 25 71 21.7 82 82 SW 7 11 30.03 1017 9 14 N/A
7:53 pm 19:53 Mostly Cloudy with Thunderstorms 77 25 72 22.2 85 85 NNE 9 15 30.06 1018 8 13 N/A
8:53 pm 20:53 Mostly Cloudy 76 24.4 72 22.2 88 88 S 10 17 30.06 1018 9 14 N/A
9:53 pm 21:53 Clear 76 24.4 71 21.7 85 85 SW 6 9 30.06 1018 10 16 N/A
10:53 pm 22:53 Partly Cloudy 73 22.8 69 20.6 87 87 N N/A 30.09 1019 10 16 N/A
11:53 pm 23:53 Cloudy 72 22.2 70 21.1 94 94 N N/A 30.09 1019 10 16 N/A

Powered by AerisWeather